| time (UTC) | temp F | wind direction | speed knots | gust knots | rain 1hr in | rain 24hr in | rain mn in | humidity % | barometer mb |
| 20260510220342 | 86 | 248 | 1.7 | 5.2 | 0.00 | 0.00 | 0.00 | 66 | 1016.7 |
| 20260510215844 | 86 | 273 | 1.7 | 5.2 | 0.00 | 0.00 | 0.00 | 66 | 1016.6 |
| 20260510215339 | 86 | 289 | 1.7 | 4.3 | 0.00 | 0.00 | 0.00 | 65 | 1016.7 |
| 20260510214841 | 86 | 252 | 2.6 | 5.2 | 0.00 | 0.00 | 0.00 | 65 | 1016.7 |
| 20260510214341 | 86 | 234 | 1.7 | 6.1 | 0.00 | 0.00 | 0.00 | 65 | 1016.6 |
| 20260510213824 | 86 | 317 | 1.7 | 6.1 | 0.00 | 0.00 | 0.00 | 67 | 1016.7 |
| 20260510213335 | 85 | 304 | 1.7 | 6.1 | 0.00 | 0.00 | 0.00 | 67 | 1016.7 |
| 20260510212834 | 85 | 258 | 2.6 | 7.0 | 0.00 | 0.00 | 0.00 | 67 | 1016.7 |
| 20260510212334 | 84 | 280 | 1.7 | 4.3 | 0.00 | 0.00 | 0.00 | 68 | 1016.8 |
| 20260510211834 | 84 | 247 | 1.7 | 4.3 | 0.00 | 0.00 | 0.00 | 70 | 1016.7 |
| 20260510211404 | 84 | 254 | 2.6 | 7.0 | 0.00 | 0.00 | 0.00 | 70 | 1016.8 |
| 20260510210826 | 84 | 265 | 1.7 | 7.0 | 0.00 | 0.00 | 0.00 | 70 | 1016.8 |
| 20260510210330 | 84 | 236 | 2.6 | 7.0 | 0.00 | 0.00 | 0.00 | 70 | 1016.8 |
| 20260510205828 | 83 | 253 | 2.6 | 6.1 | 0.00 | 0.00 | 0.00 | 71 | 1016.9 |
| 20260510205356 | 83 | 237 | 1.7 | 6.1 | 0.00 | 0.00 | 0.00 | 72 | 1017.0 |
| 20260510204836 | 83 | 248 | 3.5 | 8.7 | 0.00 | 0.00 | 0.00 | 71 | 1017.1 |
| 20260510204406 | 83 | 297 | 2.6 | 8.7 | 0.00 | 0.00 | 0.00 | 70 | 1017.1 |
| 20260510203847 | 84 | 250 | 3.5 | 8.7 | 0.00 | 0.00 | 0.00 | 70 | 1017.0 |
| 20260510203336 | 84 | 244 | 2.6 | 7.8 | 0.00 | 0.00 | 0.00 | 70 | 1017.0 |
| 20260510202835 | 84 | 258 | 0.9 | 3.5 | 0.00 | 0.00 | 0.00 | 71 | 1017.1 |
| 20260510202336 | 84 | 269 | 0.9 | 3.5 | 0.00 | 0.00 | 0.00 | 70 | 1017.1 |
| 20260510201839 | 84 | 277 | 1.7 | 4.3 | 0.00 | 0.00 | 0.00 | 69 | 1017.1 |
| 20260510201341 | 84 | 261 | 1.7 | 4.3 | 0.00 | 0.00 | 0.00 | 68 | 1016.9 |
| 20260510200841 | 84 | 251 | 1.7 | 5.2 | 0.00 | 0.00 | 0.00 | 67 | 1016.9 |
| 20260510200343 | 84 | 331 | 0.0 | 2.6 | 0.00 | 0.00 | 0.00 | 68 | 1016.6 |
| 20260510195824 | 83 | 287 | 0.0 | 2.6 | 0.00 | 0.00 | 0.00 | 69 | 1016.8 |
| 20260510195323 | 83 | 292 | 0.0 | 2.6 | 0.00 | 0.00 | 0.00 | 69 | 1016.8 |
| 20260510194851 | 83 | 309 | 1.7 | 3.5 | 0.00 | 0.00 | 0.00 | 68 | 1016.7 |
| 20260510194331 | 84 | 5 | 1.7 | 3.5 | 0.00 | 0.00 | 0.00 | 67 | 1016.9 |
| 20260510193902 | 84 | 302 | 0.9 | 2.6 | 0.00 | 0.00 | 0.00 | 66 | 1016.8 |
| 20260510193323 | 84 | 299 | 0.9 | 2.6 | 0.00 | 0.00 | 0.00 | 68 | 1016.8 |
| 20260510192826 | 84 | 261 | 0.9 | 3.5 | 0.00 | 0.00 | 0.00 | 69 | 1016.8 |
| 20260510192329 | 84 | 314 | 0.9 | 3.5 | 0.00 | 0.00 | 0.00 | 69 | 1016.8 |
| 20260510191829 | 84 | 281 | 0.9 | 2.6 | 0.00 | 0.00 | 0.00 | 68 | 1016.8 |
| 20260510191331 | 84 | 244 | 0.9 | 5.2 | 0.00 | 0.00 | 0.00 | 68 | 1016.6 |
| 20260510190840 | 84 | 355 | 1.7 | 9.6 | 0.00 | 0.00 | 0.00 | 66 | 1016.6 |
| 20260510190342 | 85 | 307 | 2.6 | 13.0 | 0.00 | 0.00 | 0.00 | 62 | 1016.7 |
| 20260510185839 | 86 | 244 | 6.1 | 13.9 | 0.00 | 0.00 | 0.00 | 60 | 1016.9 |
| 20260510185339 | 88 | 286 | 4.3 | 15.6 | 0.00 | 0.00 | 0.00 | 62 | 1017.0 |
| 20260510184839 | 90 | 246 | 1.7 | 6.1 | 0.00 | 0.00 | 0.00 | 57 | 1017.1 |
| 20260510184341 | 90 | 263 | 2.6 | 6.1 | 0.00 | 0.00 | 0.00 | 56 | 1016.9 |
| 20260510183823 | 90 | 203 | 1.7 | 7.0 | 0.00 | 0.00 | 0.00 | 57 | 1016.8 |
| 20260510183327 | 90 | 252 | 3.5 | 7.8 | 0.00 | 0.00 | 0.00 | 57 | 1016.9 |
| 20260510182824 | 90 | 244 | 3.5 | 10.4 | 0.00 | 0.00 | 0.00 | 56 | 1016.8 |
| 20260510182412 | 91 | 259 | 6.1 | 10.4 | 0.00 | 0.00 | 0.00 | 55 | 1016.9 |
| 20260510181852 | 91 | 281 | 2.6 | 11.3 | 0.00 | 0.00 | 0.00 | 55 | 1016.9 |
| 20260510181333 | 92 | 259 | 4.3 | 10.4 | 0.00 | 0.00 | 0.00 | 54 | 1017.0 |
| 20260510180858 | 92 | 317 | 2.6 | 7.8 | 0.00 | 0.00 | 0.00 | 55 | 1016.9 |
| 20260510180406 | 92 | 261 | 2.6 | 7.8 | 0.00 | 0.00 | 0.00 | 55 | 1016.9 |
| 20260510175849 | 92 | 273 | 2.6 | 7.8 | 0.00 | 0.00 | 0.00 | 55 | 1017.0 |
| 20260510175351 | 92 | 229 | 0.9 | 7.8 | 0.00 | 0.00 | 0.00 | 54 | 1017.1 |
| 20260510174837 | 93 | 254 | 3.5 | 8.7 | 0.00 | 0.00 | 0.00 | 54 | 1017.1 |
| 20260510174339 | 93 | 287 | 1.7 | 8.7 | 0.00 | 0.00 | 0.00 | 53 | 1017.2 |
| 20260510173840 | 93 | 15 | 1.7 | 7.0 | 0.00 | 0.00 | 0.00 | 54 | 1017.3 |
| 20260510173340 | 92 | 195 | 3.5 | 7.8 | 0.00 | 0.00 | 0.00 | 55 | 1017.5 |
| 20260510172844 | 92 | 250 | 2.6 | 8.7 | 0.00 | 0.00 | 0.00 | 56 | 1017.5 |
| 20260510172346 | 93 | 261 | 2.6 | 8.7 | 0.00 | 0.00 | 0.00 | 54 | 1017.6 |
| 20260510171846 | 92 | 262 | 1.7 | 7.8 | 0.00 | 0.00 | 0.00 | 56 | 1017.7 |
| 20260510171342 | 92 | 219 | 3.5 | 7.8 | 0.00 | 0.00 | 0.00 | 55 | 1017.8 |
| 20260510170844 | 91 | 253 | 2.6 | 6.1 | 0.00 | 0.00 | 0.00 | 55 | 1017.8 |
| 20260510170344 | 91 | 200 | 1.7 | 7.8 | 0.00 | 0.00 | 0.00 | 56 | 1017.9 |
| 20260510165850 | 90 | 231 | 3.5 | 9.6 | 0.00 | 0.00 | 0.00 | 56 | 1018.0 |
| 20260510165350 | 90 | 300 | 0.9 | 7.0 | 0.00 | 0.00 | 0.00 | 56 | 1018.0 |
| 20260510164837 | 90 | 237 | 3.5 | 7.0 | 0.00 | 0.00 | 0.00 | 56 | 1018.1 |
| 20260510164337 | 91 | 219 | 1.7 | 7.0 | 0.00 | 0.00 | 0.00 | 57 | 1018.2 |
| 20260510163839 | 91 | 277 | 0.9 | 6.1 | 0.00 | 0.00 | 0.00 | 59 | 1018.2 |
| 20260510163407 | 91 | 93 | 3.5 | 6.1 | 0.00 | 0.00 | 0.00 | 56 | 1018.3 |
| 20260510162845 | 90 | 123 | 0.9 | 8.7 | 0.00 | 0.00 | 0.00 | 60 | 1018.3 |
| 20260510162344 | 90 | 306 | 3.5 | 8.7 | 0.00 | 0.00 | 0.00 | 59 | 1018.4 |
| 20260510161843 | 90 | 283 | 1.7 | 7.8 | 0.00 | 0.00 | 0.00 | 63 | 1018.5 |
| 20260510161343 | 89 | 303 | 0.9 | 7.8 | 0.00 | 0.00 | 0.00 | 62 | 1018.5 |
| 20260510160847 | 89 | 160 | 2.6 | 7.0 | 0.00 | 0.00 | 0.00 | 62 | 1018.4 |
| 20260510160345 | 89 | 248 | 1.7 | 7.8 | 0.00 | 0.00 | 0.00 | 64 | 1018.4 |
| 20260510155847 | 88 | 167 | 0.9 | 3.5 | 0.00 | 0.00 | 0.00 | 65 | 1018.4 |
| 20260510155343 | 87 | 136 | 1.7 | 3.5 | 0.00 | 0.00 | 0.00 | 65 | 1018.4 |
| 20260510154842 | 86 | 140 | 0.9 | 6.1 | 0.00 | 0.00 | 0.00 | 69 | 1018.5 |
| 20260510154342 | 86 | 140 | 0.9 | 7.0 | 0.00 | 0.00 | 0.00 | 68 | 1018.5 |
| 20260510153844 | 86 | 132 | 1.7 | 6.1 | 0.00 | 0.00 | 0.00 | 67 | 1018.5 |
| 20260510153346 | 86 | 140 | 0.9 | 4.3 | 0.00 | 0.00 | 0.00 | 69 | 1018.4 |
| 20260510152849 | 86 | 147 | 1.7 | 5.2 | 0.00 | 0.00 | 0.00 | 69 | 1018.4 |
| 20260510152344 | 85 | 265 | 0.9 | 3.5 | 0.00 | 0.00 | 0.00 | 70 | 1018.5 |
| 20260510151845 | 85 | 277 | 0.9 | 6.1 | 0.00 | 0.00 | 0.00 | 70 | 1018.5 |
| 20260510151345 | 85 | 257 | 1.7 | 6.1 | 0.00 | 0.00 | 0.00 | 70 | 1018.5 |
| 20260510150846 | 85 | 246 | 1.7 | 5.2 | 0.00 | 0.00 | 0.00 | 69 | 1018.5 |
| 20260510150348 | 85 | 268 | 0.9 | 5.2 | 0.00 | 0.00 | 0.00 | 70 | 1018.4 |
| 20260510145848 | 85 | 140 | 0.9 | 4.3 | 0.00 | 0.00 | 0.00 | 69 | 1018.4 |
| 20260510145327 | 85 | 186 | 0.9 | 5.2 | 0.00 | 0.00 | 0.00 | 69 | 1018.4 |
| 20260510144828 | 85 | 122 | 1.7 | 5.2 | 0.00 | 0.00 | 0.00 | 69 | 1018.4 |
| 20260510144328 | 85 | 239 | 1.7 | 5.2 | 0.00 | 0.00 | 0.00 | 70 | 1018.3 |
| 20260510143830 | 85 | 190 | 1.7 | 7.0 | 0.00 | 0.00 | 0.00 | 68 | 1018.3 |
| 20260510143338 | 84 | 232 | 3.5 | 7.0 | 0.00 | 0.00 | 0.00 | 69 | 1018.3 |
| 20260510142843 | 84 | 252 | 1.7 | 5.2 | 0.00 | 0.00 | 0.00 | 71 | 1018.3 |
| 20260510142336 | 84 | 254 | 0.9 | 4.3 | 0.00 | 0.00 | 0.00 | 72 | 1018.3 |
| 20260510141836 | 84 | 228 | 0.0 | 4.3 | 0.00 | 0.00 | 0.00 | 72 | 1018.4 |
| 20260510141345 | 83 | 293 | 1.7 | 5.2 | 0.00 | 0.00 | 0.00 | 72 | 1018.4 |
| 20260510140843 | 83 | 244 | 0.9 | 2.6 | 0.00 | 0.00 | 0.00 | 73 | 1018.4 |
| 20260510140345 | 83 | 250 | 0.0 | 4.3 | 0.00 | 0.00 | 0.00 | 73 | 1018.3 |
| 20260510135849 | 83 | 182 | 0.9 | 4.3 | 0.00 | 0.00 | 0.00 | 73 | 1018.3 |
| 20260510135349 | 83 | 217 | 0.9 | 3.5 | 0.00 | 0.00 | 0.00 | 73 | 1018.3 |
| 20260510134849 | 83 | 157 | 0.0 | 2.6 | 0.00 | 0.00 | 0.00 | 75 | 1018.2 |
| 20260510134327 | 82 | 182 | 1.7 | 3.5 | 0.00 | 0.00 | 0.00 | 76 | 1018.1 |
| 20260510133828 | 82 | 242 | 0.9 | 3.5 | 0.00 | 0.00 | 0.00 | 77 | 1018.0 |
| 20260510133330 | 82 | 255 | 0.0 | 3.5 | 0.00 | 0.00 | 0.00 | 78 | 1018.0 |
| 20260510132855 | 81 | 217 | 0.9 | 3.5 | 0.00 | 0.00 | 0.00 | 78 | 1017.9 |
| 20260510132401 | 81 | 138 | 0.9 | 2.6 | 0.00 | 0.00 | 0.00 | 79 | 1017.9 |
| 20260510131840 | 81 | 165 | 0.0 | 0.9 | 0.00 | 0.00 | 0.00 | 80 | 1017.9 |
| 20260510131340 | 80 | 180 | 0.0 | 0.0 | 0.00 | 0.00 | 0.00 | 81 | 1017.9 |
| 20260510130840 | 80 | 173 | 0.0 | 0.9 | 0.00 | 0.00 | 0.00 | 82 | 1017.8 |
| 20260510130341 | 80 | 173 | 0.0 | 1.7 | 0.00 | 0.00 | 0.00 | 82 | 1017.7 |
| 20260510125842 | 79 | 255 | 0.0 | 1.7 | 0.00 | 0.00 | 0.00 | 83 | 1017.7 |
| 20260510125340 | 79 | 186 | 0.0 | 0.9 | 0.00 | 0.00 | 0.00 | 83 | 1017.7 |
| 20260510124841 | 79 | 186 | 0.0 | 2.6 | 0.00 | 0.00 | 0.00 | 83 | 1017.6 |
| 20260510124347 | 79 | 199 | 0.0 | 2.6 | 0.00 | 0.00 | 0.00 | 84 | 1017.5 |
| 20260510123848 | 78 | 199 | 0.0 | 2.6 | 0.00 | 0.00 | 0.00 | 84 | 1017.5 |
| 20260510123345 | 78 | 181 | 0.9 | 2.6 | 0.00 | 0.00 | 0.00 | 84 | 1017.5 |
| 20260510122847 | 78 | 189 | 0.0 | 0.9 | 0.00 | 0.00 | 0.00 | 85 | 1017.5 |
| 20260510122347 | 78 | 155 | 0.0 | 3.5 | 0.00 | 0.00 | 0.00 | 86 | 1017.5 |
| 20260510121848 | 78 | 196 | 0.0 | 3.5 | 0.00 | 0.00 | 0.00 | 87 | 1017.4 |
| 20260510121348 | 77 | 173 | 0.0 | 1.7 | 0.00 | 0.00 | 0.00 | 88 | 1017.3 |
| 20260510120828 | 77 | 154 | 0.9 | 3.5 | 0.00 | 0.00 | 0.00 | 89 | 1017.2 |
| 20260510120329 | 76 | 173 | 0.0 | 3.5 | 0.00 | 0.00 | 0.00 | 90 | 1017.1 |
| 20260510115840 | 76 | 183 | 0.9 | 2.6 | 0.00 | 0.00 | 0.00 | 90 | 1017.0 |
| 20260510115338 | 75 | 212 | 0.0 | 4.3 | 0.00 | 0.00 | 0.00 | 90 | 1016.9 |
| 20260510114837 | 75 | 146 | 0.9 | 4.3 | 0.00 | 0.00 | 0.00 | 91 | 1016.8 |
| 20260510114337 | 75 | 140 | 0.9 | 2.6 | 0.00 | 0.00 | 0.00 | 91 | 1016.8 |
| 20260510113838 | 75 | 119 | 0.9 | 2.6 | 0.00 | 0.00 | 0.00 | 91 | 1016.9 |
| 20260510113340 | 75 | 199 | 0.0 | 2.6 | 0.00 | 0.00 | 0.00 | 92 | 1016.9 |
| 20260510112835 | 74 | 161 | 0.9 | 1.7 | 0.00 | 0.00 | 0.00 | 92 | 1016.7 |
| 20260510112338 | 74 | 178 | 0.0 | 0.9 | 0.00 | 0.00 | 0.00 | 91 | 1016.6 |
| 20260510111840 | 74 | 182 | 0.0 | 0.0 | 0.00 | 0.00 | 0.00 | 91 | 1016.6 |
| 20260510111323 | 74 | 182 | 0.0 | 0.0 | 0.00 | 0.00 | 0.00 | 91 | 1016.5 |
| 20260510110824 | 74 | 182 | 0.0 | 0.0 | 0.00 | 0.00 | 0.00 | 91 | 1016.4 |
| 20260510110328 | 74 | 183 | 0.0 | 0.0 | 0.00 | 0.00 | 0.00 | 90 | 1016.4 |
| 20260510105829 | 74 | 183 | 0.0 | 0.0 | 0.00 | 0.00 | 0.00 | 90 | 1016.3 |
| 20260510105330 | 74 | 183 | 0.0 | 0.0 | 0.00 | 0.00 | 0.00 | 91 | 1016.3 |
| 20260510104831 | 74 | 183 | 0.0 | 0.0 | 0.00 | 0.00 | 0.00 | 91 | 1016.2 |
| 20260510104334 | 74 | 183 | 0.0 | 0.0 | 0.00 | 0.00 | 0.00 | 91 | 1016.0 |
| 20260510103843 | 74 | 183 | 0.0 | 0.0 | 0.00 | 0.00 | 0.00 | 91 | 1015.9 |
| 20260510103345 | 74 | 183 | 0.0 | 0.0 | 0.00 | 0.00 | 0.00 | 91 | 1015.9 |
| 20260510102848 | 74 | 183 | 0.0 | 0.0 | 0.00 | 0.00 | 0.00 | 91 | 1015.8 |
| 20260510102345 | 74 | 183 | 0.0 | 0.9 | 0.00 | 0.00 | 0.00 | 91 | 1015.7 |
| 20260510101848 | 74 | 182 | 0.0 | 0.9 | 0.00 | 0.00 | 0.00 | 91 | 1015.6 |
| 20260510101330 | 74 | 148 | 0.0 | 0.9 | 0.00 | 0.00 | 0.00 | 91 | 1015.5 |
| 20260510100859 | 75 | 148 | 0.0 | 2.6 | 0.00 | 0.00 | 0.00 | 91 | 1015.5 |
| 20260510100338 | 74 | 134 | 0.0 | 2.6 | 0.00 | 0.00 | 0.00 | 92 | 1015.4 |
| 20260510095907 | 74 | 141 | 0.9 | 2.6 | 0.00 | 0.00 | 0.00 | 92 | 1015.3 |
| 20260510095344 | 74 | 153 | 0.0 | 2.6 | 0.00 | 0.00 | 0.00 | 92 | 1015.4 |
| 20260510094842 | 74 | 149 | 0.0 | 2.6 | 0.00 | 0.00 | 0.00 | 92 | 1015.4 |
| 20260510094342 | 74 | 144 | 0.9 | 2.6 | 0.00 | 0.00 | 0.00 | 92 | 1015.3 |
| 20260510093823 | 74 | 136 | 0.0 | 1.7 | 0.00 | 0.00 | 0.00 | 92 | 1015.2 |
| 20260510093332 | 74 | 147 | 0.0 | 1.7 | 0.00 | 0.00 | 0.00 | 92 | 1015.3 |
| 20260510092827 | 74 | 128 | 0.0 | 1.7 | 0.00 | 0.00 | 0.00 | 92 | 1015.3 |
| 20260510092336 | 74 | 138 | 0.0 | 1.7 | 0.00 | 0.00 | 0.00 | 92 | 1015.3 |
| 20260510091836 | 74 | 142 | 0.0 | 0.9 | 0.00 | 0.00 | 0.00 | 92 | 1015.3 |
| 20260510091340 | 74 | 165 | 0.0 | 0.9 | 0.00 | 0.00 | 0.00 | 93 | 1015.3 |
| 20260510090842 | 74 | 172 | 0.0 | 0.9 | 0.00 | 0.00 | 0.00 | 93 | 1015.3 |
| 20260510090325 | 74 | 123 | 0.0 | 2.6 | 0.00 | 0.00 | 0.00 | 93 | 1015.2 |
| 20260510085914 | 74 | 146 | 0.9 | 4.3 | 0.00 | 0.00 | 0.00 | 93 | 1015.1 |
| 20260510085350 | 74 | 138 | 0.9 | 4.3 | 0.00 | 0.00 | 0.00 | 93 | 1015.1 |
| 20260510084849 | 73 | 111 | 1.7 | 3.5 | 0.00 | 0.00 | 0.00 | 93 | 1015.0 |
| 20260510084350 | 73 | 106 | 0.0 | 0.9 | 0.00 | 0.00 | 0.00 | 92 | 1015.0 |
| 20260510083854 | 73 | 49 | 0.0 | 0.0 | 0.00 | 0.00 | 0.00 | 92 | 1015.0 |
| 20260510083334 | 73 | 49 | 0.0 | 0.0 | 0.00 | 0.00 | 0.00 | 92 | 1015.1 |
| 20260510082834 | 73 | 49 | 0.0 | 0.0 | 0.00 | 0.00 | 0.00 | 92 | 1015.1 |
| 20260510082334 | 73 | 49 | 0.0 | 0.0 | 0.00 | 0.00 | 0.00 | 92 | 1015.2 |
| 20260510081837 | 73 | 49 | 0.0 | 0.0 | 0.00 | 0.00 | 0.00 | 92 | 1015.3 |
| 20260510081408 | 73 | 49 | 0.0 | 0.0 | 0.00 | 0.00 | 0.00 | 92 | 1015.2 |
| 20260510080850 | 73 | 49 | 0.0 | 0.0 | 0.00 | 0.00 | 0.00 | 92 | 1015.3 |
| 20260510080331 | 73 | 49 | 0.0 | 0.0 | 0.00 | 0.00 | 0.00 | 92 | 1015.2 |
| 20260510075855 | 73 | 49 | 0.0 | 0.0 | 0.00 | 0.00 | 0.00 | 92 | 1015.1 |
| 20260510075404 | 73 | 49 | 0.0 | 0.0 | 0.00 | 0.00 | 0.00 | 92 | 1015.2 |
| 20260510074826 | 73 | 49 | 0.0 | 0.0 | 0.00 | 0.00 | 0.00 | 92 | 1015.1 |
| 20260510074323 | 73 | 49 | 0.0 | 0.0 | 0.00 | 0.00 | 0.00 | 91 | 1015.2 |
| 20260510073824 | 73 | 49 | 0.0 | 0.0 | 0.00 | 0.00 | 0.00 | 91 | 1015.3 |
| 20260510073325 | 73 | 49 | 0.0 | 0.0 | 0.00 | 0.00 | 0.00 | 91 | 1015.5 |
| 20260510072824 | 73 | 49 | 0.0 | 0.0 | 0.00 | 0.00 | 0.00 | 91 | 1015.6 |
| 20260510072355 | 73 | 49 | 0.0 | 0.0 | 0.00 | 0.00 | 0.00 | 91 | 1015.6 |
| 20260510071837 | 73 | 49 | 0.0 | 0.0 | 0.00 | 0.00 | 0.00 | 91 | 1015.7 |
| 20260510071340 | 72 | 49 | 0.0 | 0.0 | 0.00 | 0.00 | 0.00 | 91 | 1015.6 |
| 20260510070843 | 72 | 49 | 0.0 | 0.0 | 0.00 | 0.00 | 0.00 | 91 | 1015.5 |
| 20260510070326 | 73 | 49 | 0.0 | 0.0 | 0.00 | 0.00 | 0.00 | 91 | 1015.6 |
| 20260510065825 | 73 | 49 | 0.0 | 0.0 | 0.00 | 0.00 | 0.00 | 91 | 1015.6 |
| 20260510065352 | 73 | 49 | 0.0 | 0.0 | 0.00 | 0.00 | 0.00 | 91 | 1015.6 |
| 20260510064834 | 73 | 49 | 0.0 | 0.0 | 0.00 | 0.00 | 0.00 | 90 | 1015.7 |
| 20260510064343 | 73 | 49 | 0.0 | 0.0 | 0.00 | 0.00 | 0.00 | 90 | 1015.8 |
| 20260510063844 | 73 | 49 | 0.0 | 0.0 | 0.00 | 0.00 | 0.00 | 90 | 1015.7 |
| 20260510063346 | 73 | 49 | 0.0 | 0.0 | 0.00 | 0.00 | 0.00 | 90 | 1015.9 |
| 20260510062846 | 73 | 49 | 0.0 | 0.0 | 0.00 | 0.00 | 0.00 | 90 | 1016.0 |
| 20260510062327 | 73 | 49 | 0.0 | 0.0 | 0.00 | 0.00 | 0.00 | 90 | 1016.0 |
| 20260510061830 | 73 | 49 | 0.0 | 0.0 | 0.00 | 0.00 | 0.00 | 90 | 1016.0 |
| 20260510061332 | 73 | 49 | 0.0 | 0.0 | 0.00 | 0.00 | 0.00 | 90 | 1015.9 |
| 20260510060832 | 73 | 49 | 0.0 | 0.0 | 0.00 | 0.00 | 0.00 | 90 | 1015.9 |
| 20260510060332 | 73 | 49 | 0.0 | 0.0 | 0.00 | 0.00 | 0.00 | 90 | 1016.0 |
| 20260510055835 | 73 | 49 | 0.0 | 0.0 | 0.00 | 0.00 | 0.00 | 89 | 1016.1 |
| 20260510055335 | 73 | 49 | 0.0 | 0.0 | 0.00 | 0.01 | 0.00 | 89 | 1016.1 |
| 20260510054836 | 73 | 49 | 0.0 | 0.0 | 0.00 | 0.01 | 0.00 | 89 | 1016.1 |
| 20260510054338 | 73 | 49 | 0.0 | 0.0 | 0.00 | 0.01 | 0.00 | 89 | 1016.1 |
| 20260510053840 | 73 | 49 | 0.0 | 0.0 | 0.00 | 0.01 | 0.00 | 89 | 1016.2 |
| 20260510053340 | 73 | 49 | 0.0 | 0.0 | 0.00 | 0.01 | 0.00 | 89 | 1016.3 |
| 20260510052843 | 73 | 49 | 0.0 | 0.0 | 0.00 | 0.01 | 0.00 | 89 | 1016.4 |
| 20260510052323 | 73 | 49 | 0.0 | 0.0 | 0.00 | 0.01 | 0.00 | 89 | 1016.5 |
| 20260510051825 | 73 | 49 | 0.0 | 0.0 | 0.00 | 0.01 | 0.00 | 89 | 1016.6 |
| 20260510051327 | 73 | 49 | 0.0 | 0.0 | 0.00 | 0.01 | 0.00 | 89 | 1016.6 |
| 20260510050830 | 74 | 49 | 0.0 | 0.0 | 0.00 | 0.01 | 0.00 | 89 | 1016.7 |
| 20260510050332 | 74 | 49 | 0.0 | 0.9 | 0.00 | 0.01 | 0.00 | 89 | 1016.7 |
| 20260510045832 | 74 | 49 | 0.0 | 0.0 | 0.00 | 0.01 | 0.00 | 89 | 1016.8 |
| 20260510045334 | 74 | 49 | 0.0 | 0.0 | 0.00 | 0.01 | 0.00 | 89 | 1017.0 |
| 20260510044833 | 74 | 49 | 0.0 | 0.0 | 0.00 | 0.01 | 0.00 | 88 | 1016.9 |
| 20260510044335 | 74 | 49 | 0.0 | 0.0 | 0.00 | 0.01 | 0.00 | 88 | 1016.9 |
| 20260510043842 | 74 | 49 | 0.0 | 0.0 | 0.00 | 0.01 | 0.00 | 88 | 1016.9 |
| 20260510043342 | 74 | 49 | 0.0 | 0.0 | 0.00 | 0.01 | 0.00 | 88 | 1016.9 |
| 20260510042841 | 74 | 49 | 0.0 | 0.0 | 0.00 | 0.01 | 0.00 | 88 | 1016.9 |
| 20260510042339 | 74 | 49 | 0.0 | 0.0 | 0.00 | 0.01 | 0.00 | 88 | 1016.8 |
| 20260510041905 | 74 | 49 | 0.0 | 0.0 | 0.00 | 0.01 | 0.00 | 88 | 1016.8 |
| 20260510041343 | 74 | 49 | 0.0 | 0.0 | 0.00 | 0.01 | 0.00 | 88 | 1016.8 |
| 20260510040824 | 74 | 49 | 0.0 | 0.0 | 0.00 | 0.01 | 0.00 | 87 | 1016.8 |
| 20260510040324 | 75 | 49 | 0.0 | 0.0 | 0.00 | 0.01 | 0.00 | 87 | 1016.8 |
| 20260510035850 | 75 | 49 | 0.0 | 0.0 | 0.00 | 0.01 | 0.00 | 87 | 1016.8 |
| 20260510035347 | 75 | 49 | 0.0 | 0.0 | 0.00 | 0.01 | 0.01 | 87 | 1016.9 |
| 20260510034828 | 75 | 49 | 0.0 | 0.0 | 0.00 | 0.01 | 0.01 | 87 | 1016.8 |
| 20260510034331 | 75 | 49 | 0.0 | 0.0 | 0.00 | 0.01 | 0.01 | 87 | 1016.7 |
| 20260510033902 | 75 | 48 | 0.0 | 0.0 | 0.00 | 0.01 | 0.01 | 87 | 1016.6 |
| 20260510033341 | 75 | 49 | 0.0 | 0.0 | 0.00 | 0.01 | 0.01 | 87 | 1016.6 |
| 20260510032843 | 75 | 49 | 0.0 | 0.0 | 0.00 | 0.01 | 0.01 | 87 | 1016.5 |
| 20260510032343 | 75 | 49 | 0.0 | 0.0 | 0.00 | 0.01 | 0.01 | 87 | 1016.5 |
| 20260510031845 | 75 | 49 | 0.0 | 0.0 | 0.00 | 0.01 | 0.01 | 86 | 1016.5 |
| 20260510031348 | 76 | 49 | 0.0 | 0.0 | 0.00 | 0.01 | 0.01 | 86 | 1016.7 |
| 20260510030851 | 76 | 49 | 0.0 | 0.0 | 0.00 | 0.01 | 0.01 | 85 | 1016.8 |
| 20260510030337 | 76 | 49 | 0.0 | 0.0 | 0.00 | 0.01 | 0.01 | 85 | 1016.8 |
| 20260510025837 | 76 | 49 | 0.0 | 0.0 | 0.00 | 0.01 | 0.01 | 85 | 1016.7 |
| 20260510025338 | 76 | 49 | 0.0 | 0.0 | 0.00 | 0.01 | 0.01 | 85 | 1016.7 |
| 20260510024909 | 76 | 49 | 0.0 | 0.0 | 0.00 | 0.01 | 0.01 | 85 | 1016.7 |
| 20260510024351 | 76 | 49 | 0.0 | 0.0 | 0.00 | 0.01 | 0.01 | 85 | 1016.7 |
| 20260510023901 | 76 | 49 | 0.0 | 0.0 | 0.00 | 0.01 | 0.01 | 85 | 1016.7 |
| 20260510023341 | 76 | 49 | 0.0 | 0.0 | 0.00 | 0.01 | 0.01 | 85 | 1016.7 |
| 20260510022843 | 76 | 49 | 0.0 | 0.9 | 0.00 | 0.01 | 0.01 | 85 | 1016.5 |
| 20260510022345 | 76 | 49 | 0.0 | 0.9 | 0.00 | 0.01 | 0.01 | 85 | 1016.4 |
| 20260510021827 | 76 | 27 | 0.0 | 0.0 | 0.00 | 0.01 | 0.01 | 85 | 1016.4 |
| 20260510021330 | 76 | 27 | 0.0 | 0.0 | 0.00 | 0.01 | 0.01 | 85 | 1016.5 |
| 20260510020828 | 76 | 27 | 0.0 | 0.9 | 0.00 | 0.01 | 0.01 | 85 | 1016.5 |
| 20260510020332 | 76 | 71 | 0.0 | 0.9 | 0.00 | 0.01 | 0.01 | 85 | 1016.5 |
| 20260510015829 | 76 | 71 | 0.0 | 1.7 | 0.00 | 0.01 | 0.01 | 85 | 1016.3 |
| 20260510015328 | 77 | 71 | 0.0 | 2.6 | 0.00 | 0.01 | 0.01 | 85 | 1016.3 |
| 20260510014829 | 77 | 71 | 0.0 | 0.9 | 0.00 | 0.01 | 0.01 | 85 | 1016.3 |
| 20260510014329 | 77 | 69 | 0.0 | 0.9 | 0.00 | 0.01 | 0.01 | 84 | 1016.3 |
| 20260510013858 | 77 | 74 | 0.0 | 1.7 | 0.00 | 0.01 | 0.01 | 84 | 1016.3 |
| 20260510013340 | 77 | 13 | 0.0 | 1.7 | 0.00 | 0.01 | 0.01 | 84 | 1016.3 |
| 20260510012850 | 77 | 13 | 0.0 | 0.9 | 0.00 | 0.01 | 0.01 | 84 | 1016.3 |
| 20260510012350 | 77 | 13 | 0.0 | 0.9 | 0.00 | 0.01 | 0.01 | 84 | 1016.3 |
| 20260510011850 | 77 | 24 | 0.0 | 0.9 | 0.00 | 0.01 | 0.01 | 84 | 1016.3 |
| 20260510011344 | 77 | 24 | 0.0 | 0.9 | 0.00 | 0.01 | 0.01 | 84 | 1016.2 |
| 20260510010843 | 77 | 24 | 0.0 | 0.9 | 0.00 | 0.01 | 0.01 | 84 | 1016.1 |
| 20260510010324 | 77 | 24 | 0.0 | 3.5 | 0.00 | 0.01 | 0.01 | 84 | 1015.9 |
| 20260510005853 | 77 | 46 | 0.9 | 3.5 | 0.00 | 0.01 | 0.01 | 83 | 1015.8 |
| 20260510005352 | 77 | 36 | 0.0 | 3.5 | 0.00 | 0.53 | 0.01 | 83 | 1015.6 |
| 20260510004901 | 77 | 13 | 0.0 | 0.9 | 0.00 | 0.53 | 0.01 | 83 | 1015.6 |
| 20260510004410 | 77 | 82 | 0.0 | 5.2 | 0.00 | 0.53 | 0.01 | 83 | 1015.6 |
| 20260510003850 | 78 | 5 | 0.9 | 5.2 | 0.00 | 0.53 | 0.01 | 83 | 1015.4 |
| 20260510003331 | 78 | 20 | 0.0 | 1.7 | 0.00 | 0.53 | 0.01 | 83 | 1015.3 |
| 20260510002830 | 78 | 25 | 0.0 | 1.7 | 0.00 | 0.53 | 0.01 | 83 | 1015.4 |
| 20260510002333 | 78 | 84 | 0.0 | 1.7 | 0.00 | 0.53 | 0.01 | 82 | 1015.5 |
| 20260510001834 | 78 | 56 | 0.0 | 1.7 | 0.00 | 0.53 | 0.01 | 82 | 1015.3 |
| 20260510001404 | 78 | 82 | 0.0 | 1.7 | 0.00 | 0.53 | 0.01 | 82 | 1015.2 |
| 20260510000844 | 78 | 78 | 0.0 | 1.7 | 0.00 | 0.53 | 0.01 | 82 | 1015.2 |
| 20260510000348 | 78 | 42 | 0.0 | 5.2 | 0.00 | 0.53 | 0.01 | 82 | 1015.3 |
| 20260509235851 | 78 | 86 | 2.6 | 5.2 | 0.00 | 0.53 | 0.01 | 81 | 1015.2 |
| 20260509235332 | 79 | 66 | 0.9 | 3.5 | 0.00 | 0.53 | 0.01 | 81 | 1015.0 |
| 20260509234835 | 79 | 71 | 0.9 | 4.3 | 0.00 | 0.53 | 0.01 | 81 | 1014.9 |
| 20260509234337 | 79 | 76 | 0.9 | 3.5 | 0.00 | 0.53 | 0.01 | 80 | 1014.9 |
| 20260509233839 | 79 | 50 | 0.0 | 4.3 | 0.00 | 0.53 | 0.01 | 80 | 1014.8 |
| 20260509233341 | 79 | 30 | 0.0 | 4.3 | 0.00 | 0.53 | 0.01 | 79 | 1014.6 |
| 20260509232842 | 80 | 44 | 0.9 | 4.3 | 0.00 | 0.53 | 0.01 | 79 | 1014.6 |
| 20260509232340 | 80 | 75 | 0.9 | 2.6 | 0.00 | 0.53 | 0.01 | 78 | 1014.7 |
| 20260509231838 | 81 | 355 | 0.9 | 1.7 | 0.00 | 0.53 | 0.01 | 78 | 1014.6 |
| 20260509231341 | 81 | 83 | 0.0 | 4.3 | 0.00 | 0.53 | 0.01 | 78 | 1014.6 |
| 20260509230843 | 81 | 5 | 0.9 | 4.3 | 0.00 | 0.53 | 0.01 | 78 | 1014.6 |
| 20260509230341 | 81 | 78 | 0.0 | 3.5 | 0.00 | 0.53 | 0.01 | 77 | 1014.4 |
| 20260509225844 | 81 | 28 | 0.9 | 3.5 | 0.00 | 0.53 | 0.01 | 77 | 1014.3 |
| 20260509225325 | 82 | 35 | 0.9 | 3.5 | 0.00 | 0.53 | 0.01 | 76 | 1014.2 |
| 20260509224829 | 82 | 22 | 0.9 | 3.5 | 0.00 | 0.53 | 0.01 | 76 | 1014.1 |
| 20260509224328 | 82 | 347 | 0.0 | 1.7 | 0.00 | 0.53 | 0.01 | 75 | 1014.0 |
| 20260509223830 | 82 | 47 | 0.0 | 2.6 | 0.00 | 0.53 | 0.01 | 75 | 1014.0 |
| 20260509223332 | 83 | 22 | 0.9 | 2.6 | 0.00 | 0.53 | 0.01 | 75 | 1013.9 |
| 20260509222843 | 83 | 24 | 0.9 | 2.6 | 0.00 | 0.53 | 0.01 | 75 | 1013.8 |
| 20260509222344 | 83 | 12 | 0.0 | 7.8 | 0.00 | 0.53 | 0.01 | 74 | 1013.7 |
| 20260509221826 | 84 | 12 | 0.9 | 7.0 | 0.00 | 0.53 | 0.01 | 73 | 1013.5 |
| 20260509221352 | 84 | 29 | 0.9 | 7.0 | 0.00 | 0.53 | 0.01 | 73 | 1013.6 |
| 20260509220833 | 85 | 20 | 0.9 | 4.3 | 0.00 | 0.53 | 0.01 | 72 | 1013.6 |